x

9431647 - Port Orford, Or (poro3) Weather Station

6:30pm - Thu 31st Jul 2014 All times are PDT. -7 hours from GMT.

  • Wind
    14mph, 26mph gusts
  • Sea Temp 50°f
  • Air Temp 66°f
  • Sea Pressure 1015.5mb
  • 9431647 - Port Orford, Or
  • 9431647 - Port Orford, Or

More Historic Weather Station data

Upgrade to MSW Pro to gain access to the past 30 days of data for over 8000 Wavebouys and Weather Stations around the globe.

Join Pro

Comparision Forecast

View Surf forecast
   
Thu 07/31 6:30pm 14 26 mph 1015.5mb 50f 66f
6:24pm 17 29 mph 1015.5mb 50f 66f
6:18pm 16 28 mph 1015.5mb 50f 66f
6:12pm 15 26 mph 1015.5mb 50f 66f
6:06pm 16 23 mph 1015.6mb 50f 66f
6:00pm 15 25 mph 1015.5mb 50f 66f
5:54pm 13 23 mph 1015.4mb 50f 66f
5:48pm 14 22 mph 1015.4mb 50f 66f
5:42pm 14 23 mph 1015.4mb 50f 67f
5:36pm 15 22 mph 1015.4mb 50f 67f
5:30pm 14 20 mph 1015.3mb 50f 67f
5:24pm 15 25 mph 1015.3mb 49f 67f
5:18pm 16 28 mph 1015.3mb 49f 66f
5:12pm 17 26 mph 1015.3mb 49f 66f
5:06pm 18 32 mph 1015.2mb 49f 66f
5:00pm 22 29 mph 1015.2mb 49f 66f
4:54pm 18 33 mph 1015.4mb 49f 66f
4:48pm 16 29 mph 1015.3mb 49f 67f
4:42pm 17 25 mph 1015.2mb 49f 67f
4:36pm 23 32 mph 1015.3mb 49f 67f
4:00pm 16 29 mph 1015.1mb 49f 67f
3:54pm 16 25 mph 1015.2mb 49f 67f
3:48pm 17 25 mph 1015.3mb 49f 67f
3:42pm 18 26 mph 1015.3mb 49f 67f
3:36pm 21 29 mph 1015.2mb 50f 67f
3:30pm 18 25 mph 1015.3mb 49f 66f
3:24pm 18 29 mph 1015.4mb 49f 66f
3:18pm 14 23 mph 1015.4mb 49f 67f
3:12pm 15 25 mph 1015.4mb 50f 67f
3:06pm 18 28 mph 1015.4mb 50f 66f
3:00pm 18 30 mph 1015.4mb 49f 66f
2:54pm 17 28 mph 1015.4mb 50f 66f
2:48pm 15 29 mph 1015.5mb 50f 67f
2:42pm 20 30 mph 1015.6mb 50f 66f
2:36pm 22 30 mph 1015.7mb 50f 66f
2:30pm 22 34 mph 1015.7mb 50f 65f
2:24pm 22 31 mph 1015.6mb 50f 65f
2:18pm 21 30 mph 1015.7mb 50f 66f
2:12pm 25 31 mph 1015.7mb 50f 65f
2:06pm 23 32 mph 1015.7mb 50f 66f
2:00pm 22 31 mph 1015.7mb 50f 66f
1:54pm 18 28 mph 1015.9mb 50f 66f
1:48pm 16 26 mph 1015.7mb 50f 66f
1:42pm 20 29 mph 1015.8mb 50f 65f
1:36pm 20 31 mph 1016mb 49f 65f
1:30pm 20 26 mph 1015.9mb 49f 65f
1:24pm 17 30 mph 1016mb 49f 66f
1:18pm 18 28 mph 1016.1mb 50f 66f
1:12pm 18 26 mph 1016.1mb 49f 66f
1:06pm 18 31 mph 1015.9mb 49f 66f
1:00pm 18 25 mph 1016mb 49f 66f
12:54pm 15 26 mph 1015.9mb 49f 66f
12:48pm 17 29 mph 1016mb 49f 66f
12:42pm 21 26 mph 1015.9mb 49f 65f
12:36pm 14 28 mph 1016.1mb 50f 66f
12:30pm 18 28 mph 1016.2mb 50f 65f
12:24pm 20 26 mph 1016.1mb 50f 65f
12:18pm 21 28 mph 1016.2mb 50f 64f
12:12pm 20 28 mph 1016.1mb 49f 64f
12:06pm 18 28 mph 1016.1mb 49f 64f
12:00pm 18 30 mph 1016.3mb 49f 64f
11:54am 17 26 mph 1016.5mb 49f 64f
11:48am 17 26 mph 1016.5mb 49f 64f
11:42am 20 25 mph 1016.4mb 49f 64f
11:36am 17 25 mph 1016.3mb 49f 64f
11:30am 17 25 mph 1016.4mb 49f 63f
11:24am 17 25 mph 1016.3mb 49f 64f
11:18am 20 30 mph 1016.1mb 49f 63f
11:12am 21 24 mph 1016.2mb 49f 63f
11:06am 16 25 mph 1016.2mb 49f 63f
11:00am 15 25 mph 1016.3mb 49f 63f
10:54am 17 24 mph 1016.2mb 49f 62f
10:48am 11 22 mph 1016.3mb 49f 63f
10:42am 14 21 mph 1016.3mb 49f 62f
10:36am 14 24 mph 1016.2mb 49f 62f
10:30am 20 24 mph 1016.1mb 49f 62f
10:24am 16 22 mph 1016.1mb 49f 63f
10:18am 13 25 mph 1016.2mb 49f 63f
10:12am 14 24 mph 1016.2mb 49f 63f
10:06am 14 24 mph 1016.2mb 49f 62f
10:00am 16 24 mph 1016.3mb 49f 62f
9:54am 15 18 mph 1016.2mb 49f 62f
9:48am 17 23 mph 1016.1mb 49f 62f
9:42am 15 21 mph 1016.1mb 49f 62f
9:36am 15 21 mph 1016.2mb 49f 62f
9:30am 15 21 mph 1016.1mb 49f 62f
9:24am 15 21 mph 1016.1mb 49f 62f
9:18am 15 24 mph 1016.1mb 49f 62f
9:12am 15 22 mph 1016.1mb 49f 62f
9:06am 17 23 mph 1016.1mb 49f 62f
9:00am 16 21 mph 1016.1mb 49f 61f
8:54am 16 21 mph 1016.2mb 49f 61f
8:48am 15 22 mph 1016.2mb 49f 62f
8:42am 17 23 mph 1016.3mb 49f 61f
8:36am 17 24 mph 1016.3mb 49f 61f
8:30am 13 21 mph 1016.3mb 49f 61f
8:24am 14 23 mph 1016.3mb 49f 61f
8:18am 14 22 mph 1016.2mb 48f 60f
8:12am 16 23 mph 1016.2mb 48f 60f
8:06am 15 25 mph 1016.3mb 48f 59f
8:00am 16 22 mph 1016.3mb 48f 59f
7:54am 16 23 mph 1016.2mb 48f 58f
7:48am 15 24 mph 1016.2mb 48f 58f
7:42am 16 23 mph 1016.1mb 48f 58f
7:36am 16 22 mph 1016.1mb 48f 57f
7:30am 17 22 mph 1016.1mb 48f 57f
7:24am 16 24 mph 1016.1mb 48f 56f
7:18am 17 23 mph 1016mb 48f 56f
7:12am 16 23 mph 1015.9mb 48f 56f
7:06am 17 22 mph 1015.8mb 48f 56f
7:00am 16 24 mph 1015.7mb 48f 56f
6:54am 18 25 mph 1015.7mb 48f 56f
6:48am 18 25 mph 1015.7mb 48f 56f
6:42am 20 24 mph 1015.6mb 48f 56f
6:36am 20 25 mph 1015.7mb 48f 56f
6:30am 18 25 mph 1015.8mb 48f 56f
6:24am 16 23 mph 1015.8mb 48f 56f
6:18am 18 26 mph 1015.8mb 48f 56f
6:12am 16 24 mph 1015.8mb 48f 56f
6:06am 18 25 mph 1015.7mb 48f 56f
6:00am 17 25 mph 1015.7mb 48f 56f
5:54am 16 23 mph 1015.7mb 48f 56f
5:48am 17 23 mph 1015.7mb 48f 56f
5:42am 18 23 mph 1015.7mb 48f 56f
5:36am 18 28 mph 1015.6mb 48f 56f
5:30am 17 26 mph 1015.6mb 48f 56f
5:24am 18 23 mph 1015.6mb 48f 55f
5:18am 17 23 mph 1015.6mb 48f 55f
5:12am 20 25 mph 1015.5mb 48f 55f
5:06am 21 28 mph 1015.5mb 48f 55f
5:00am 18 22 mph 1015.6mb 48f 55f
4:54am 17 26 mph 1015.5mb 48f 55f
4:48am 20 26 mph 1015.5mb 48f 55f
4:42am 17 23 mph 1015.5mb 48f 55f
4:36am 18 25 mph 1015.5mb 48f 55f
4:30am 20 23 mph 1015.5mb 48f 55f
4:24am 18 24 mph 1015.5mb 48f 55f
4:18am 18 25 mph 1015.5mb 48f 55f
4:12am 18 26 mph 1015.6mb 48f 55f
4:06am 21 25 mph 1015.6mb 48f 56f
4:00am 18 25 mph 1015.6mb 48f 56f
3:54am 20 25 mph 1015.7mb 48f 56f
3:48am 20 26 mph 1015.7mb 48f 56f
3:42am 17 25 mph 1015.7mb 48f 56f
3:36am 18 26 mph 1015.7mb 48f 56f
3:30am 18 24 mph 1015.7mb 48f 56f
3:24am 18 24 mph 1015.7mb 48f 56f
3:18am 18 25 mph 1015.8mb 48f 56f
3:12am 20 26 mph 1015.8mb 48f 56f
3:06am 17 23 mph 1015.8mb 48f 56f
3:00am 18 25 mph 1015.8mb 48f 56f
2:54am 18 25 mph 1015.9mb 48f 56f
2:48am 17 23 mph 1016mb 48f 56f
2:42am 18 24 mph 1016mb 48f 56f
2:36am 18 26 mph 1016.1mb 49f 57f
2:30am 17 24 mph 1016.1mb 49f 57f
2:24am 20 25 mph 1016.2mb 49f 57f
2:18am 20 29 mph 1016.3mb 49f 57f
2:12am 20 28 mph 1016.4mb 49f 57f
2:06am 18 23 mph 1016.5mb 49f 57f
2:00am 17 23 mph 1016.5mb 49f 57f
1:54am 16 23 mph 1016.6mb 49f 57f
1:48am 18 26 mph 1016.7mb 49f 58f
1:42am 15 23 mph 1016.7mb 49f 58f
1:36am 17 25 mph 1016.7mb 49f 58f
1:30am 17 26 mph 1016.6mb 49f 58f
1:24am 16 26 mph 1016.6mb 49f 58f
1:18am 17 24 mph 1016.8mb 49f 58f
1:12am 17 25 mph 1016.7mb 49f 58f
1:06am 17 23 mph 1016.7mb 49f 58f
1:00am 17 24 mph 1016.8mb 49f 58f
12:54am 16 23 mph 1016.8mb 49f 58f
12:48am 18 23 mph 1016.9mb 49f 58f
12:42am 16 24 mph 1017mb 49f 58f
12:36am 17 23 mph 1017mb 49f 58f
12:30am 17 25 mph 1017.1mb 49f 58f
12:24am 15 24 mph 1017.1mb 49f 59f
12:18am 20 23 mph 1017.1mb 49f 59f
12:12am 18 26 mph 1017.1mb 49f 59f
12:06am 18 24 mph 1017.1mb 49f 59f
12:00am 17 23 mph 1017.1mb 49f 59f
Wed 07/30 11:54pm 17 26 mph 1017.1mb 49f 59f
11:48pm 16 24 mph 1017.2mb 49f 59f
11:42pm 15 22 mph 1017.2mb 49f 59f
11:36pm 16 23 mph 1017.2mb 49f 59f
11:30pm 15 23 mph 1017.1mb 49f 60f
11:24pm 15 24 mph 1017.1mb 49f 60f
11:18pm 17 23 mph 1017.2mb 49f 60f
11:12pm 16 24 mph 1017.2mb 49f 60f
11:06pm 17 25 mph 1017.3mb 49f 60f
11:00pm 20 25 mph 1017.3mb 49f 60f
10:54pm 16 23 mph 1017.3mb 49f 60f
10:48pm 17 23 mph 1017.3mb 49f 60f
10:42pm 20 24 mph 1017.4mb 49f 60f
10:36pm 16 23 mph 1017.3mb 49f 60f
10:30pm 17 24 mph 1017.3mb 49f 60f
10:24pm 16 28 mph 1017.3mb 49f 60f
10:18pm 15 24 mph 1017.4mb 49f 60f
10:12pm 17 23 mph 1017.3mb 49f 60f
10:06pm 17 24 mph 1017.3mb 49f 60f
10:00pm 17 23 mph 1017.2mb 49f 60f
9:54pm 15 21 mph 1017.2mb 49f 60f
9:48pm 17 25 mph 1017.2mb 49f 61f
9:42pm 17 25 mph 1017.3mb 49f 61f
9:36pm 16 26 mph 1017.2mb 49f 61f
9:30pm 15 22 mph 1017.2mb 49f 61f
9:24pm 17 25 mph 1017.2mb 49f 61f
9:18pm 18 23 mph 1017.1mb 49f 61f
9:12pm 18 25 mph 1017.2mb 49f 61f
9:06pm 18 25 mph 1017.2mb 49f 61f
9:00pm 16 29 mph 1017.2mb 49f 61f
8:54pm 14 21 mph 1017.2mb 49f 61f
8:48pm 11 21 mph 1017.2mb 49f 61f
8:42pm 15 23 mph 1017.3mb 49f 62f
8:36pm 15 22 mph 1017.2mb 49f 62f
8:30pm 15 25 mph 1017.2mb 49f 62f
8:24pm 16 22 mph 1017.1mb 49f 62f
8:18pm 14 22 mph 1017.1mb 49f 62f
8:12pm 14 22 mph 1017.1mb 49f 62f
8:06pm 14 21 mph 1017.1mb 49f 62f
8:00pm 15 22 mph 1017mb 49f 62f
7:54pm 16 25 mph 1017mb 49f 63f
7:48pm 16 23 mph 1017mb 49f 63f
7:42pm 15 24 mph 1017.1mb 49f 63f
7:36pm 16 24 mph 1017.1mb 49f 63f
7:30pm 17 25 mph 1017.1mb 49f 63f
7:24pm 15 24 mph 1017.1mb 49f 63f
7:18pm 14 23 mph 1017mb 50f 63f
7:12pm 17 24 mph 1016.9mb 50f 63f
7:06pm 18 30 mph 1016.8mb 50f 63f
7:00pm 18 31 mph 1016.8mb 50f 63f
6:54pm 17 26 mph 1016.7mb 50f 63f
6:48pm 16 25 mph 1016.7mb 50f 64f
6:42pm 18 31 mph 1016.6mb 50f 64f
6:36pm 20 28 mph 1016.6mb 50f 64f
6:30pm 17 29 mph 1016.5mb 50f 64f
6:24pm 22 29 mph 1016.6mb 50f 64f
6:18pm 15 24 mph 1016.6mb 50f 64f
6:12pm 17 28 mph 1016.5mb 50f 64f
6:06pm 16 28 mph 1016.4mb 50f 64f
6:00pm 16 29 mph 1016.5mb 50f 64f
5:54pm 18 29 mph 1016.4mb 50f 64f
5:48pm 17 29 mph 1016.4mb 50f 65f
5:42pm 16 28 mph 1016.4mb 50f 65f
5:36pm 18 24 mph 1016.5mb 50f 65f
5:30pm 20 30 mph 1016.4mb 50f 65f
5:24pm 17 29 mph 1016.4mb 50f 65f
5:12pm 20 31 mph 1016.4mb 50f 65f
5:06pm 16 26 mph 1016.4mb 50f 65f
5:00pm 21 26 mph 1016.4mb 50f 65f
4:54pm 18 28 mph 1016.3mb 50f 65f
4:48pm 21 31 mph 1016.3mb 50f 65f
4:42pm 21 29 mph 1016.4mb 50f 65f
4:36pm 18 28 mph 1016.4mb 50f 65f
4:30pm 22 31 mph 1016.5mb 49f 65f
4:24pm 21 28 mph 1016.6mb 49f 65f
4:18pm 17 24 mph 1016.5mb 49f 65f
4:12pm 17 28 mph 1016.6mb 49f 65f
4:06pm 20 26 mph 1016.7mb 49f 65f
4:00pm 21 29 mph 1016.7mb 49f 65f
3:54pm 21 30 mph 1016.8mb 49f 65f
3:48pm 17 30 mph 1016.7mb 49f 65f
3:42pm 23 31 mph 1016.7mb 49f 64f
3:36pm 23 33 mph 1016.7mb 49f 64f
3:30pm 21 29 mph 1016.7mb 49f 65f
3:24pm 22 31 mph 1016.8mb 49f 65f
3:18pm 22 29 mph 1016.7mb 49f 65f
3:12pm 23 31 mph 1016.7mb 49f 65f
3:06pm 22 31 mph 1016.7mb 50f 65f
3:00pm 23 33 mph 1016.7mb 49f 65f
2:54pm 21 31 mph 1016.7mb 49f 65f
2:48pm 18 29 mph 1016.9mb 49f 65f
2:42pm 15 23 mph 1016.8mb 49f 66f
2:36pm 15 28 mph 1016.7mb 49f 66f
2:30pm 22 28 mph 1016.8mb 49f 65f
2:24pm 17 31 mph 1016.8mb 49f 66f
2:18pm 20 26 mph 1016.8mb 49f 66f
2:12pm 18 24 mph 1016.8mb 49f 66f
2:06pm 23 33 mph 1017.1mb 49f 66f
2:00pm 20 26 mph 1016.9mb 49f 66f
1:54pm 20 29 mph 1017mb 49f 66f
1:48pm 20 28 mph 1016.9mb 49f 66f
1:42pm 16 25 mph 1017mb 49f 66f
1:36pm 20 30 mph 1017.1mb 49f 66f
1:30pm 22 29 mph 1017.1mb 49f 65f
1:24pm 15 25 mph 1017.3mb 49f 66f
1:18pm 17 29 mph 1017.3mb 49f 66f
1:12pm 17 25 mph 1017.3mb 49f 66f
1:06pm 16 25 mph 1017.4mb 49f 66f
1:00pm 15 25 mph 1017.4mb 49f 66f
12:54pm 16 24 mph 1017.3mb 49f 65f
12:48pm 15 22 mph 1017.2mb 49f 65f
12:42pm 15 25 mph 1017.3mb 49f 64f
12:36pm 18 24 mph 1017.3mb 49f 64f
12:30pm 17 24 mph 1017.3mb 49f 64f
12:24pm 17 25 mph 1017.4mb 49f 64f
12:18pm 17 23 mph 1017.4mb 49f 64f
12:12pm 17 24 mph 1017.5mb 49f 64f
12:06pm 17 22 mph 1017.5mb 49f 64f
12:00pm 14 21 mph 1017.4mb 49f 64f
11:54am 14 23 mph 1017.4mb 49f 64f
11:48am 16 25 mph 1017.4mb 49f 64f
11:42am 15 22 mph 1017.4mb 49f 64f
11:36am 18 26 mph 1017.4mb 49f 63f
11:30am 14 23 mph 1017.5mb 49f 64f
11:24am 17 24 mph 1017.6mb 49f 64f
11:18am 16 23 mph 1017.6mb 49f 64f
11:12am 18 26 mph 1017.6mb 49f 63f
11:06am 21 28 mph 1017.6mb 49f 62f
11:00am 18 28 mph 1017.7mb 49f 62f
10:54am 17 25 mph 1017.8mb 49f 62f
10:48am 20 25 mph 1017.8mb 49f 62f
10:42am 17 25 mph 1017.8mb 49f 62f
10:36am 20 25 mph 1017.8mb 49f 62f
10:30am 18 24 mph 1017.8mb 49f 62f
10:24am 17 23 mph 1017.8mb 49f 61f
10:18am 15 24 mph 1017.7mb 49f 61f
10:12am 18 26 mph 1017.8mb 49f 60f
10:06am 16 26 mph 1017.8mb 49f 60f
10:00am 18 24 mph 1017.9mb 49f 60f
9:54am 18 23 mph 1017.9mb 49f 60f
9:48am 17 23 mph 1018mb 49f 60f
9:42am 15 22 mph 1018mb 49f 60f
9:36am 17 25 mph 1018mb 49f 59f
9:30am 17 29 mph 1018mb 49f 59f
9:24am 17 29 mph 1018.1mb 49f 58f
9:18am 17 24 mph 1018.1mb 49f 58f
9:12am 15 26 mph 1018mb 49f 58f
9:06am 18 25 mph 1018mb 49f 58f
9:00am 16 26 mph 1018.1mb 49f 58f
8:54am 17 25 mph 1018.1mb 49f 58f
8:48am 16 23 mph 1018mb 49f 58f
8:42am 16 23 mph 1018mb 49f 57f
8:36am 17 25 mph 1018.1mb 49f 57f
8:30am 16 22 mph 1018.1mb 49f 57f
8:24am 17 23 mph 1018.1mb 49f 57f
8:18am 15 22 mph 1018.2mb 49f 58f
8:12am 16 23 mph 1018.2mb 49f 57f
8:06am 16 22 mph 1018.1mb 49f 57f
8:00am 15 22 mph 1018.1mb 49f 57f
7:54am 16 23 mph 1018.1mb 49f 57f
7:48am 14 21 mph 1018.3mb 49f 57f
7:42am 15 21 mph 1018.2mb 49f 57f
7:36am 13 21 mph 1018.2mb 49f 57f
7:30am 14 23 mph 1018.1mb 49f 57f
7:24am 16 24 mph 1018.1mb 49f 56f
7:18am 16 22 mph 1018.1mb 49f 56f
7:12am 15 22 mph 1018.1mb 49f 56f
7:06am 15 20 mph 1018.1mb 49f 56f
7:00am 15 18 mph 1018.2mb 49f 56f
6:54am 14 22 mph 1018.3mb 49f 57f
6:48am 14 24 mph 1018.3mb 49f 57f
6:42am 14 20 mph 1018.3mb 49f 57f
6:36am 13 18 mph 1018.2mb 49f 57f
6:30am 14 21 mph 1018.2mb 48f 57f
6:24am 16 22 mph 1018.1mb 48f 57f
6:18am 15 22 mph 1018mb 48f 57f
6:12am 15 22 mph 1018mb 48f 57f
6:06am 15 21 mph 1018mb 48f 57f
6:00am 17 22 mph 1018mb 48f 57f
5:54am 16 21 mph 1017.9mb 48f 57f
5:48am 14 22 mph 1017.9mb 48f 57f
5:42am 16 26 mph 1017.8mb 48f 57f
5:36am 14 21 mph 1017.8mb 48f 57f
5:30am 16 21 mph 1017.8mb 48f 57f
5:24am 15 22 mph 1017.9mb 48f 57f
5:18am 13 21 mph 1017.9mb 48f 57f
5:12am 13 18 mph 1018mb 48f 58f
5:06am 13 21 mph 1018mb 48f 58f
5:00am 14 20 mph 1018mb 48f 58f
4:54am 14 20 mph 1018.1mb 48f 58f
4:48am 14 20 mph 1018.1mb 48f 58f
4:42am 15 20 mph 1018.2mb 48f 58f
4:36am 13 21 mph 1018.1mb 48f 58f
4:30am 13 18 mph 1018.1mb 48f 58f
4:24am 13 22 mph 1018.2mb 48f 58f
4:18am 13 18 mph 1018.3mb 48f 58f
4:12am 15 20 mph 1018.3mb 48f 58f
4:06am 11 20 mph 1018.3mb 48f 58f
4:00am 11 17 mph 1018.4mb 48f 58f
3:54am 13 20 mph 1018.5mb 48f 58f
3:48am 11 18 mph 1018.4mb 48f 58f
3:42am 11 20 mph 1018.5mb 48f 58f
3:36am 13 21 mph 1018.4mb 48f 58f
3:30am 14 21 mph 1018.5mb 48f 58f
3:24am 14 21 mph 1018.5mb 48f 58f
3:18am 14 23 mph 1018.5mb 48f 58f
3:12am 14 23 mph 1018.5mb 48f 58f
3:06am 14 20 mph 1018.6mb 48f 58f
3:00am 14 21 mph 1018.6mb 48f 58f
2:54am 15 22 mph 1018.5mb 48f 58f
2:48am 16 22 mph 1018.5mb 48f 58f
2:42am 17 23 mph 1018.5mb 48f 58f
2:36am 16 23 mph 1018.5mb 48f 58f
2:30am 15 23 mph 1018.5mb 48f 58f
2:24am 15 22 mph 1018.4mb 48f 58f
2:18am 17 22 mph 1018.5mb 48f 58f
2:12am 15 24 mph 1018.5mb 48f 58f
2:06am 17 24 mph 1018.5mb 48f 58f
2:00am 17 24 mph 1018.5mb 48f 58f
1:54am 16 23 mph 1018.5mb 48f 58f
1:48am 16 23 mph 1018.6mb 48f 58f
1:42am 14 23 mph 1018.5mb 48f 58f
1:36am 17 24 mph 1018.6mb 48f 58f
1:30am 16 23 mph 1018.5mb 48f 58f
1:24am 14 25 mph 1018.6mb 48f 58f
1:18am 18 25 mph 1018.6mb 48f 58f
1:12am 16 25 mph 1018.6mb 49f 59f
1:06am 15 23 mph 1018.7mb 49f 58f
1:00am 14 22 mph 1018.7mb 49f 58f
12:54am 16 22 mph 1018.7mb 49f 58f
12:48am 17 23 mph 1018.7mb 49f 58f
12:42am 17 24 mph 1018.6mb 49f 58f
12:36am 17 24 mph 1018.6mb 49f 59f
12:30am 17 25 mph 1018.6mb 49f 59f
12:24am 15 24 mph 1018.6mb 49f 59f
12:18am 16 22 mph 1018.6mb 49f 59f
12:12am 16 23 mph 1018.8mb 49f 59f
12:06am 14 24 mph 1018.8mb 49f 59f
12:00am 16 23 mph 1018.9mb 49f 59f
Tue 07/29 11:54pm 16 23 mph 1018.8mb 49f 59f
11:48pm 15 22 mph 1018.8mb 49f 59f
11:42pm 16 22 mph 1018.9mb 49f 59f
11:36pm 15 23 mph 1018.9mb 49f 59f
11:30pm 16 23 mph 1019.1mb 49f 59f
11:24pm 15 22 mph 1019.1mb 49f 59f
11:18pm 13 20 mph 1019.1mb 49f 59f
11:12pm 14 21 mph 1019.2mb 49f 59f
11:06pm 13 22 mph 1019.1mb 49f 59f
11:00pm 13 20 mph 1019.2mb 49f 59f
10:54pm 15 23 mph 1019.2mb 49f 59f
10:48pm 13 23 mph 1019.1mb 49f 59f
10:42pm 14 23 mph 1019.2mb 49f 59f
10:36pm 15 22 mph 1019.2mb 49f 59f
10:30pm 16 24 mph 1019.3mb 49f 60f
10:24pm 14 23 mph 1019.3mb 49f 60f
10:18pm 11 21 mph 1019.4mb 49f 60f
10:12pm 14 20 mph 1019.3mb 49f 60f
10:06pm 13 20 mph 1019.4mb 49f 60f
10:00pm 14 22 mph 1019.2mb 49f 60f
9:54pm 21 25 mph 1019.3mb 49f 60f
9:48pm 14 21 mph 1019.2mb 49f 60f
9:42pm 14 22 mph 1019.1mb 50f 60f
9:36pm 17 24 mph 1019mb 50f 60f
9:30pm 13 24 mph 1019mb 50f 60f
9:24pm 16 22 mph 1018.8mb 50f 60f
9:18pm 14 21 mph 1018.8mb 51f 60f
9:12pm 14 24 mph 1018.7mb 51f 61f
9:06pm 16 26 mph 1018.7mb 51f 61f
9:00pm 14 22 mph 1018.7mb 51f 61f
8:54pm 16 23 mph 1018.7mb 51f 61f
8:48pm 16 23 mph 1018.7mb 51f 61f
8:42pm 15 23 mph 1018.6mb 51f 61f
8:36pm 16 24 mph 1018.6mb 50f 61f
8:30pm 17 24 mph 1018.6mb 51f 61f
8:24pm 16 25 mph 1018.6mb 51f 62f
8:18pm 16 24 mph 1018.6mb 51f 62f
8:12pm 14 22 mph 1018.5mb 51f 62f
8:06pm 16 22 mph 1018.4mb 51f 62f
8:00pm 14 21 mph 1018.5mb 51f 63f
7:54pm 15 22 mph 1018.4mb 51f 63f
7:48pm 16 22 mph 1018.4mb 51f 63f
7:42pm 17 22 mph 1018.4mb 51f 64f
7:36pm 16 24 mph 1018.4mb 51f 64f
7:30pm 15 21 mph 1018.4mb 51f 64f
7:24pm 14 24 mph 1018.4mb 51f 64f
7:18pm 13 24 mph 1018.3mb 51f 65f
7:12pm 14 23 mph 1018.3mb 51f 65f
7:06pm 16 23 mph 1018.2mb 51f 65f
7:00pm 15 26 mph 1018.2mb 51f 64f
6:54pm 14 22 mph 1018.2mb 51f 64f
6:48pm 16 22 mph 1018.2mb 51f 64f
6:42pm 14 24 mph 1018.2mb 51f 64f
6:36pm 16 23 mph 1018.2mb 51f 64f
6:30pm 14 25 mph 1018.2mb 51f 64f
6:24pm 14 23 mph 1018.1mb 51f 64f
6:18pm 17 25 mph 1018.1mb 51f 64f
6:12pm 20 26 mph 1018.2mb 51f 64f
6:06pm 17 25 mph 1018.3mb 51f 64f
6:00pm 16 24 mph 1018.2mb 51f 64f
5:54pm 17 25 mph 1018.3mb 51f 64f
5:48pm 16 26 mph 1018.3mb 51f 64f
5:42pm 20 28 mph 1018.3mb 51f 64f
5:36pm 16 28 mph 1018.3mb 51f 64f
5:30pm 17 25 mph 1018.4mb 51f 64f
5:24pm 17 29 mph 1018.4mb 51f 64f
5:18pm 17 26 mph 1018.3mb 51f 64f
5:12pm 18 26 mph 1018.3mb 51f 64f
5:06pm 18 26 mph 1018.4mb 51f 64f
5:00pm 20 33 mph 1018.3mb 51f 64f
4:54pm 21 36 mph 1018.5mb 51f 64f
4:48pm 18 30 mph 1018.4mb 51f 64f
4:42pm 20 26 mph 1018.5mb 51f 64f
4:36pm 16 30 mph 1018.4mb 51f 64f
4:30pm 20 28 mph 1018.4mb 51f 64f
4:24pm 22 32 mph 1018.2mb 51f 64f
4:18pm 22 29 mph 1018.2mb 51f 64f
4:12pm 18 28 mph 1018.3mb 51f 64f
4:06pm 18 28 mph 1018.3mb 51f 64f
4:00pm 17 28 mph 1018.4mb 51f 64f
3:54pm 17 30 mph 1018.5mb 51f 64f
3:48pm 18 31 mph 1018.5mb 51f 63f
3:42pm 21 30 mph 1018.5mb 51f 63f
3:36pm 21 32 mph 1018.5mb 51f 63f
3:30pm 24 34 mph 1018.6mb 51f 62f
3:24pm 26 38 mph 1018.7mb 51f 63f
3:18pm 22 31 mph 1018.7mb 51f 63f
3:12pm 20 29 mph 1018.7mb 51f 64f
3:06pm 22 34 mph 1018.8mb 51f 63f
3:00pm 22 33 mph 1018.6mb 51f 63f
2:54pm 21 33 mph 1018.7mb 51f 63f
2:48pm 22 34 mph 1018.7mb 51f 63f
2:42pm 23 34 mph 1018.8mb 51f 64f
2:36pm 21 31 mph 1018.7mb 51f 64f
2:30pm 16 37 mph 1018.7mb 51f 64f
2:24pm 22 30 mph 1018.7mb 51f 64f
2:18pm 20 39 mph 1018.7mb 51f 64f
2:12pm 21 31 mph 1018.7mb 51f 64f
2:06pm 22 30 mph 1018.7mb 50f 63f
2:00pm 21 26 mph 1018.8mb 50f 64f
1:54pm 24 31 mph 1018.8mb 50f 64f
1:48pm 20 31 mph 1018.8mb 50f 64f
1:42pm 24 33 mph 1018.6mb 50f 64f
1:36pm 18 29 mph 1018.8mb 51f 64f
1:30pm 23 30 mph 1018.6mb 51f 64f
1:24pm 18 31 mph 1018.6mb 50f 64f
1:18pm 22 31 mph 1018.6mb 50f 64f
1:12pm 22 32 mph 1018.6mb 50f 64f
1:06pm 24 33 mph 1018.7mb 50f 64f
1:00pm 20 30 mph 1018.7mb 50f 64f
12:54pm 20 28 mph 1018.6mb 51f 65f
12:48pm 21 28 mph 1018.6mb 51f 65f
12:42pm 21 29 mph 1018.8mb 50f 65f
12:36pm 18 26 mph 1018.8mb 50f 65f
12:30pm 20 26 mph 1018.7mb 50f 65f
12:24pm 17 29 mph 1018.7mb 50f 65f
12:18pm 20 29 mph 1018.7mb 50f 65f
12:12pm 21 26 mph 1018.6mb 50f 65f
12:06pm 20 28 mph 1018.7mb 50f 64f
12:00pm 18 29 mph 1018.9mb 50f 64f
11:54am 21 29 mph 1018.9mb 50f 64f
11:48am 16 29 mph 1018.8mb 50f 64f
11:42am 14 24 mph 1018.8mb 50f 64f
11:36am 17 25 mph 1018.9mb 50f 64f
11:30am 18 28 mph 1018.8mb 50f 64f
11:24am 20 29 mph 1018.9mb 49f 64f
11:18am 18 24 mph 1018.8mb 49f 64f
11:12am 18 25 mph 1018.9mb 49f 64f
11:06am 18 28 mph 1018.9mb 49f 63f
11:00am 20 26 mph 1019mb 49f 63f
10:54am 20 28 mph 1019.1mb 49f 63f
10:48am 20 26 mph 1018.9mb 49f 63f
10:42am 17 25 mph 1018.9mb 49f 62f
10:36am 17 23 mph 1019mb 49f 62f
10:30am 17 24 mph 1019mb 49f 62f
10:24am 18 28 mph 1019mb 49f 62f
10:18am 18 24 mph 1019mb 49f 62f
10:12am 15 24 mph 1019mb 49f 63f
10:06am 16 22 mph 1019mb 49f 62f
10:00am 15 23 mph 1019mb 49f 62f
9:54am 16 23 mph 1019.1mb 49f 62f
9:48am 18 23 mph 1019.1mb 49f 61f
9:42am 14 23 mph 1019.2mb 49f 61f
9:36am 14 21 mph 1019.1mb 49f 61f
9:30am 14 21 mph 1019.2mb 49f 61f
9:24am 14 22 mph 1019.2mb 49f 61f
9:18am 15 23 mph 1019.2mb 49f 61f
9:12am 14 22 mph 1019.2mb 49f 61f
9:06am 15 22 mph 1019.2mb 49f 60f
9:00am 15 21 mph 1019.2mb 49f 60f
8:54am 13 22 mph 1019.2mb 49f 60f
8:48am 14 20 mph 1019.2mb 49f 60f
8:42am 15 22 mph 1019.2mb 49f 60f
8:36am 14 23 mph 1019.4mb 49f 59f
8:30am 15 22 mph 1019.3mb 49f 59f
8:24am 13 21 mph 1019.3mb 49f 59f
8:18am 15 22 mph 1019.3mb 49f 59f
8:12am 14 21 mph 1019.4mb 49f 59f
8:06am 13 21 mph 1019.4mb 49f 58f
8:00am 14 21 mph 1019.4mb 49f 58f
7:54am 14 22 mph 1019.4mb 48f 58f
7:48am 13 18 mph 1019.3mb 49f 58f
7:42am 14 21 mph 1019.4mb 48f 58f
7:36am 14 21 mph 1019.4mb 48f 58f
7:30am 14 22 mph 1019.3mb 48f 58f
7:24am 14 24 mph 1019.4mb 48f 58f
7:18am 15 21 mph 1019.4mb 48f 57f
7:12am 11 18 mph 1019.4mb 48f 57f
7:06am 14 20 mph 1019.3mb 48f 57f
7:00am 13 20 mph 1019.2mb 48f 57f
6:54am 15 21 mph 1019.2mb 48f 57f
6:48am 11 16 mph 1019.2mb 48f 57f
6:42am 13 20 mph 1019.2mb 48f 57f
6:36am 15 20 mph 1019.1mb 48f 57f
6:30am 13 20 mph 1019.1mb 48f 57f
6:24am 14 18 mph 1019mb 48f 57f
6:18am 14 18 mph 1018.9mb 48f 57f
6:12am 14 22 mph 1018.8mb 48f 57f
6:06am 14 20 mph 1018.8mb 48f 57f
6:00am 14 18 mph 1018.9mb 48f 57f
5:54am 10 18 mph 1018.9mb 48f 57f
5:48am 13 18 mph 1018.9mb 48f 57f
5:42am 13 22 mph 1018.9mb 48f 57f
5:36am 14 20 mph 1018.9mb 48f 57f
5:30am 13 20 mph 1019mb 48f 57f
5:24am 15 21 mph 1018.9mb 48f 57f
5:18am 14 18 mph 1019mb 48f 57f
5:12am 15 22 mph 1018.8mb 48f 57f
5:06am 15 23 mph 1018.6mb 48f 57f
5:00am 14 23 mph 1018.7mb 48f 57f
4:54am 13 20 mph 1018.8mb 48f 57f
4:48am 13 20 mph 1018.9mb 48f 57f
4:42am 13 21 mph 1018.9mb 48f 57f
4:36am 14 18 mph 1018.9mb 48f 58f
4:30am 10 20 mph 1019mb 48f 57f
4:24am 13 18 mph 1018.9mb 48f 58f
4:18am 14 24 mph 1018.8mb 48f 57f
4:12am 15 22 mph 1018.7mb 48f 57f
4:06am 16 22 mph 1018.6mb 48f 57f
4:00am 16 21 mph 1018.7mb 48f 57f
3:54am 11 17 mph 1018.7mb 48f 56f
3:48am 9 14 mph 1018.8mb 48f 56f
3:42am 5 8 mph 1018.7mb 48f 53f
3:36am 1 2 mph 1018.8mb 48f 52f
3:30am 1 3 mph 1018.8mb 48f 51f
3:24am 5 6 mph 1018.9mb 48f 51f
3:18am 6
mph
1018.9mb 48f 51f
3:12am 6 7 mph 1018.9mb 48f 51f
3:06am 6 8 mph 1018.9mb 48f 51f
3:00am 8 9 mph 1018.9mb 48f 51f
2:54am 7 11 mph 1018.9mb 48f 51f
2:48am 7 11 mph 1018.8mb 48f 52f
2:42am 8 11 mph 1018.8mb 48f 52f
2:36am 10 13 mph 1018.7mb 48f 53f
2:30am 9 14 mph 1018.7mb 48f 54f
2:24am 10 15 mph 1018.7mb 48f 57f
2:18am 11 20 mph 1018.5mb 48f 58f
2:12am 13 22 mph 1018.4mb 48f 58f
2:06am 15 20 mph 1018.4mb 48f 58f
2:00am 15 22 mph 1018.4mb 48f 58f
1:54am 15 22 mph 1018.4mb 48f 58f
1:48am 15 22 mph 1018.4mb 49f 58f
1:42am 14 22 mph 1018.4mb 49f 58f
1:36am 14 21 mph 1018.4mb 49f 58f
1:30am 15 20 mph 1018.4mb 49f 58f
1:24am 15 22 mph 1018.4mb 49f 58f
1:18am 16 23 mph 1018.4mb 49f 58f
1:12am 15 22 mph 1018.5mb 49f 58f
1:06am 15 23 mph 1018.5mb 49f 58f
1:00am 16 22 mph 1018.5mb 49f 58f
12:54am 16 23 mph 1018.5mb 49f 58f
12:48am 15 23 mph 1018.4mb 49f 58f
12:42am 16 22 mph 1018.5mb 49f 58f
12:36am 16 23 mph 1018.4mb 49f 58f
12:30am 15 21 mph 1018.5mb 49f 58f
12:24am 15 21 mph 1018.5mb 49f 58f
12:18am 16 22 mph 1018.5mb 49f 58f
12:12am 16 23 mph 1018.5mb 49f 58f
12:06am 15 20 mph 1018.6mb 49f 58f
12:00am 15 21 mph 1018.6mb 49f 58f
Mon 07/28 11:54pm 14 24 mph 1018.6mb 49f 58f
11:48pm 16 23 mph 1018.6mb 49f 58f
11:42pm 16 22 mph 1018.6mb 49f 58f
11:36pm 16 22 mph 1018.5mb 49f 58f
11:30pm 15 20 mph 1018.5mb 49f 58f
11:24pm 15 25 mph 1018.5mb 49f 58f
11:18pm 16 22 mph 1018.6mb 49f 58f
11:12pm 16 24 mph 1018.6mb 49f 58f
11:06pm 15 22 mph 1018.5mb 49f 58f
11:00pm 16 23 mph 1018.5mb 49f 58f
10:54pm 16 24 mph 1018.5mb 49f 58f
10:48pm 16 23 mph 1018.5mb 49f 58f
10:42pm 16 24 mph 1018.5mb 49f 58f
10:36pm 17 24 mph 1018.4mb 49f 58f
10:30pm 16 24 mph 1018.4mb 49f 58f
10:24pm 17 23 mph 1018.4mb 49f 58f
10:18pm 17 22 mph 1018.5mb 49f 58f
10:12pm 16 23 mph 1018.4mb 49f 58f
10:06pm 18 25 mph 1018.3mb 49f 58f
10:00pm 17 25 mph 1018.2mb 49f 58f
9:54pm 16 23 mph 1018.2mb 49f 58f
9:48pm 17 25 mph 1018.2mb 49f 58f
9:42pm 17 24 mph 1018.1mb 49f 58f
9:36pm 16 22 mph 1018.1mb 49f 58f
9:30pm 17 23 mph 1018mb 49f 58f
9:24pm 17 25 mph 1017.8mb 49f 58f
9:18pm 17 24 mph 1017.8mb - -
9:12pm 18 24 mph 1017.8mb 49f 58f
9:06pm 16 23 mph 1017.8mb 49f 58f
9:00pm 16 25 mph 1017.7mb 49f 58f
8:54pm 16 23 mph 1017.7mb 49f 59f
8:48pm 16 22 mph 1017.6mb 49f 59f
8:42pm 17 23 mph 1017.5mb 49f 59f
8:36pm 16 22 mph 1017.5mb 49f 59f
8:30pm 14 23 mph 1017.5mb 49f 59f
8:24pm 16 26 mph 1017.4mb 49f 60f
8:18pm 17 22 mph 1017.4mb 49f 60f
8:12pm 18 23 mph 1017.4mb 49f 60f
8:06pm 16 22 mph 1017.3mb 49f 60f
8:00pm 16 23 mph 1017.3mb 49f 60f
7:54pm 17 23 mph 1017.2mb 49f 61f
7:48pm 17 24 mph 1017.1mb 49f 61f
7:42pm 16 26 mph 1017mb 49f 61f
7:36pm 17 24 mph 1017mb 49f 61f
7:30pm 15 23 mph 1017mb 49f 61f
7:24pm 18 24 mph 1016.8mb 49f 62f
7:18pm 16 29 mph 1016.8mb 49f 62f
7:12pm 16 25 mph 1016.8mb 49f 62f
7:06pm 18 26 mph 1016.7mb 49f 62f
7:00pm 17 23 mph 1016.7mb 49f 62f
6:54pm 18 25 mph 1016.9mb 49f 63f
6:48pm 18 26 mph 1016.7mb 49f 63f
6:42pm 18 28 mph 1016.8mb 49f 63f
6:36pm 16 25 mph 1016.8mb 49f 63f
6:30pm 18 24 mph 1016.7mb 49f 63f
6:24pm 20 28 mph 1016.7mb 49f 63f
6:18pm 16 26 mph 1016.7mb 49f 64f
6:12pm 18 26 mph 1016.7mb 49f 64f
6:06pm 17 23 mph 1016.8mb 49f 64f
6:00pm 18 25 mph 1016.8mb 49f 64f
5:54pm 18 28 mph 1016.7mb 49f 64f
5:48pm 16 28 mph 1016.8mb 49f 64f
5:42pm 16 29 mph 1016.7mb 49f 64f
5:36pm 16 31 mph 1016.8mb 49f 64f
5:30pm 22 32 mph 1016.7mb 49f 63f
5:24pm 21 29 mph 1016.8mb 49f 63f
5:18pm 17 30 mph 1016.9mb 49f 63f
5:12pm 22 31 mph 1016.9mb 49f 63f
5:06pm 17 26 mph 1017mb 49f 64f
5:00pm 21 26 mph 1017mb 49f 63f
4:54pm 21 30 mph 1017mb 49f 63f
4:48pm 17 28 mph 1017mb 49f 63f
4:42pm 22 32 mph 1017mb 49f 63f
4:36pm 21 30 mph 1017mb 49f 63f
4:30pm 20 31 mph 1017.1mb 49f 63f
4:24pm 21 32 mph 1017.2mb 49f 63f
4:18pm 18 24 mph 1017mb 49f 64f
4:12pm 18 29 mph 1017.1mb 49f 64f
4:06pm 24 34 mph 1017.1mb 49f 63f
4:00pm 22 30 mph 1017.1mb 49f 63f
3:54pm 21 30 mph 1017.1mb 49f 63f
3:48pm 23 33 mph 1017.2mb 49f 63f
3:42pm 22 31 mph 1017.3mb 49f 63f
3:36pm 21 29 mph 1017.3mb 49f 63f
3:30pm 17 29 mph 1017.3mb 49f 64f
3:24pm 18 26 mph 1017.2mb 49f 64f
3:18pm 18 30 mph 1017.2mb 49f 64f
3:12pm 18 30 mph 1017.2mb 49f 64f
3:06pm 20 29 mph 1017.3mb 49f 63f
3:00pm 20 31 mph 1017.2mb 49f 64f
2:54pm 22 33 mph 1017.4mb 49f 63f
2:48pm 23 33 mph 1017.4mb 49f 63f
2:42pm 21 29 mph 1017.5mb 48f 63f
2:36pm 15 30 mph 1017.4mb 49f 64f
2:30pm 17 28 mph 1017.4mb 48f 64f
2:24pm 20 31 mph 1017.3mb 48f 64f
2:18pm 16 26 mph 1017.2mb 48f 65f
2:12pm 15 24 mph 1017.3mb 48f 65f
2:06pm 15 24 mph 1017.3mb 49f 65f
2:00pm 14 28 mph 1017.3mb 48f 64f
1:54pm 18 30 mph 1017.2mb 48f 64f
1:48pm 15 28 mph 1017.2mb 48f 65f
1:42pm 15 22 mph 1017.3mb 48f 65f
1:36pm 18 26 mph 1017.1mb 48f 64f
1:30pm 14 28 mph 1017.2mb 48f 65f
1:24pm 20 25 mph 1017.1mb 48f 64f
1:18pm 14 21 mph 1017.2mb 49f 65f
1:12pm 14 23 mph 1017.2mb 49f 65f
1:06pm 17 26 mph 1017.2mb 48f 65f
1:00pm 15 28 mph 1017.3mb 49f 65f
12:54pm 17 28 mph 1017.2mb 49f 65f
12:48pm 17 24 mph 1017.2mb 49f 65f
12:42pm 13 23 mph 1017.3mb 49f 65f
12:36pm 18 28 mph 1017.3mb 49f 64f
12:30pm 14 22 mph 1017.3mb 49f 64f
12:24pm 16 23 mph 1017.3mb 49f 64f
12:18pm 18 25 mph 1017.4mb 49f 63f
12:12pm 15 24 mph 1017.5mb 49f 64f
12:06pm 11 18 mph 1017.6mb 49f 65f
12:00pm 11 23 mph 1017.6mb 49f 64f
11:54am 10 18 mph 1017.6mb 49f 65f
11:48am 9 18 mph 1017.6mb 49f 65f
11:42am 10 16 mph 1017.5mb 49f 65f
11:36am 10 16 mph 1017.4mb 49f 66f
11:30am 10 20 mph 1017.4mb 49f 66f
11:24am 9 18 mph 1017.5mb 49f 66f
11:18am 14 21 mph 1017.5mb 49f 65f
11:12am 14 23 mph 1017.5mb 49f 65f
11:06am 13 16 mph 1017.5mb 49f 64f
11:00am 11 16 mph 1017.4mb 49f 64f
10:54am 11 16 mph 1017.5mb 49f 63f
10:48am 11 17 mph 1017.4mb 48f 63f
10:42am 9 18 mph 1017.6mb 48f 63f
10:36am 11 17 mph 1017.5mb 48f 63f
10:30am 11 18 mph 1017.5mb 48f 62f
10:24am 10 14 mph 1017.4mb 48f 63f
10:18am 10 16 mph 1017.5mb 48f 62f
10:12am 10 15 mph 1017.5mb 48f 62f
10:06am 9 14 mph 1017.4mb 49f 62f
10:00am 11 17 mph 1017.4mb 49f 61f
9:54am 11 21 mph 1017.5mb 48f 60f
9:48am 14 17 mph 1017.5mb 48f 60f
9:42am 9 14 mph 1017.5mb 48f 60f
9:36am 8 15 mph 1017.5mb 48f 59f
9:30am 9 14 mph 1017.5mb 48f 59f
9:24am 10 18 mph 1017.4mb 48f 58f
9:18am 11 18 mph 1017.4mb 48f 58f
9:12am 13 22 mph 1017.4mb 48f 57f
9:06am 17 24 mph 1017.2mb 48f 57f
9:00am 16 23 mph 1017.3mb 48f 57f
8:54am 15 22 mph 1017.2mb 48f 57f
8:48am 13 20 mph 1017.3mb 48f 57f
8:42am 13 21 mph 1017.2mb 48f 57f
8:36am 13 21 mph 1017.2mb 48f 57f
8:30am 13 17 mph 1017.1mb 48f 57f
8:24am 10 18 mph 1017.1mb 48f 57f
8:18am 10 15 mph 1017.1mb 48f 57f
8:12am 11 16 mph 1017.1mb 48f 57f
8:06am 13 20 mph 1017mb 48f 56f
8:00am 15 22 mph 1016.9mb 48f 56f
7:54am 16 24 mph 1016.8mb 48f 56f
7:48am 16 21 mph 1016.7mb 48f 56f
7:42am 18 22 mph 1016.7mb 48f 56f
7:36am 16 22 mph 1016.7mb 48f 56f
7:30am 15 20 mph 1016.6mb 48f 56f
7:24am 17 21 mph 1016.7mb 48f 55f
7:18am 17 21 mph 1016.6mb 48f 55f
7:12am 17 22 mph 1016.5mb 48f 55f
7:06am 15 23 mph 1016.5mb 48f 55f
7:00am 17 23 mph 1016.4mb 48f 55f
6:54am 18 23 mph 1016.2mb 48f 55f
6:48am 17 23 mph 1016.1mb 48f 55f
6:42am 14 22 mph 1016.2mb 48f 55f
6:36am 18 24 mph 1016mb 48f 55f
6:30am 18 24 mph 1016mb 48f 55f
6:24am 17 22 mph 1016mb 48f 55f
6:18am 18 22 mph 1016.1mb 48f 55f
6:12am 16 23 mph 1016.1mb 48f 55f
6:06am 18 23 mph 1016.2mb 48f 55f
6:00am 16 23 mph 1016.2mb 48f 55f
5:54am 18 23 mph 1016.2mb 48f 55f
5:48am 17 22 mph 1016.1mb 48f 55f
5:42am 18 23 mph 1016.2mb 48f 55f
5:36am 20 24 mph 1016.2mb 48f 55f
5:30am 17 24 mph 1016.2mb 48f 55f
5:24am 17 24 mph 1016.2mb 48f 55f
5:18am 16 24 mph 1016.1mb 48f 55f
5:12am 18 22 mph 1016.1mb 48f 55f
5:06am 17 23 mph 1016.1mb 48f 55f
5:00am 17 23 mph 1016.1mb 48f 55f
4:54am 16 24 mph 1016.2mb 47f 56f
4:48am 16 23 mph 1016.2mb 47f 56f
4:42am 18 24 mph 1016.1mb 47f 56f
4:36am 18 25 mph 1016.2mb 47f 56f
4:30am 18 23 mph 1016.2mb 47f 56f
4:24am 16 22 mph 1016.1mb 47f 56f
4:18am 20 23 mph 1016.2mb 47f 56f
4:12am 16 23 mph 1016.2mb 47f 56f
4:06am 20 25 mph 1016.1mb 47f 56f
4:00am 18 26 mph 1016.1mb 47f 56f
3:54am 17 24 mph 1016.2mb 47f 56f
3:48am 17 24 mph 1016.1mb 47f 56f
3:42am 17 23 mph 1016.1mb 47f 56f
3:36am 18 24 mph 1016.1mb 47f 56f
3:30am 16 26 mph 1016.1mb 47f 56f
3:24am 18 24 mph 1016.1mb 47f 57f
3:18am 17 24 mph 1016.2mb 47f 57f
3:12am 18 25 mph 1016.1mb 47f 57f
3:06am 17 24 mph 1016.2mb 47f 57f
3:00am 20 26 mph 1016.2mb 47f 57f
2:54am 18 26 mph 1016.2mb 47f 57f
2:48am 18 26 mph 1016.2mb 47f 57f
2:42am 17 26 mph 1016.2mb 47f 57f
2:36am 17 25 mph 1016.1mb 47f 57f
2:30am 18 25 mph 1016.1mb 47f 57f
2:24am 16 26 mph 1016.1mb 47f 57f
2:18am 18 25 mph 1016mb 47f 57f